Location: Newark
(49.1022°N, 20.8503°E)
Time: 07:06:24
(UTC+00:00)

Envisat - Pass Details

Date: 30 September 2020
Orbit: 764 x 766 km, 98.1° (Epoch: 21 October)

Event Time Altitude Azimuth Distance (km) Brightness Sun altitude
Rises 03:41:28 0° 24° (NNE) 3,243 6.7 -9.6°
Reaches altitude 10° 03:44:14 10° 39° (NE) 2,312 6.2 -9.2°
Maximum altitude 03:48:17 23° 92° (E) 1,574 5.8 -8.5°
Drops below altitude 10° 03:52:17 10° 144° (SE) 2,297 5.9 -7.8°
Sets 03:55:02 0° 159° (SSE) 3,218 6.5 -7.4°
